Regional Weather Roundup
Issued by NWS

Home | Current Version | Previous Version | Graphics & Text | Print | Product List | Glossary On
Versions: 1 2 3 4 5 6 7 8 9 10 11 12 13 14 15 16 17 18 19 20 21 22 23 24 25 26 27 28 29 30 31 32 33 34 35 36 37 38 39 40 41 42 43 44 45 46 47 48 49 50
000
ASUS45 KTFX 230719
RWRMT
MONTANA HOURLY WEATHER ROUNDUP
NATIONAL WEATHER SERVICE GREAT FALLS MT
119 AM MDT WED JUL 23 2014

NOTE: "FAIR" INDICATES FEW OR NO CLOUDS BELOW 12000 FEET WITH NO
SIGNIFICANT WEATHER AND/OR OBSTRUCTIONS TO VISIBILITY.

* THESE STATIONS ARE NOT UNDER NWS QUALITY CONTROL. THEY DO NOT
   REPORT WEATHER SUCH AS PRECIPITATION OR FOG.

MTZ001>007-043-230800-
WEST OF THE DIVIDE
CITY           SKY/WX    TMP DP  RH WIND       PRES   REMARKS
KALISPELL      TSTM      59  57  93 CALM      30.17R
MISSOULA       MOCLDY    70  48  46 NW10      30.13S
BUTTE          PTCLDY    59  48  67 CALM      30.26R
MULLAN PASS    CLOUDY    52  46  80 N8        30.30S
* ESSEX        N/A       58  53  84 S7         N/A
* LINCOLN      N/A       58  56  93 N/A        N/A
* LOOKOUT PASS N/A       56  55  96 NW2        N/A
* POLSON       N/A       60  50  70 NE2        N/A
* RONAN APT    MOCLDY    57  54  90 N/A        N/A
* SEELEY LAKE  N/A       57  49  75 NE1        N/A
* THOMP F APT  CLOUDY    68  36  31 NE5        N/A
* YAAK HILL    N/A       60  56  87 SE1        N/A
$$

MTZ008-052>055-230800-
SOUTHWEST MONTANA
CITY           SKY/WX    TMP DP  RH WIND       PRES   REMARKS
BOZEMAN        PTCLDY    63  48  58 W6        30.20F
DILLON         PTCLDY    61  48  62 E8        30.19F
W YELLOWSTONE  PTCLDY    46  45  96 CALM      30.34F
* THREE FORKS  MOCLDY    64  64 100 N/A        N/A
* BOULDER HILL N/A       59  44  58 N1         N/A
* MONIDA PASS  N/A       58  36  44 W1         N/A
* RAYNOLDS PAS N/A       56  40  55 S8         N/A
* WHITEHALL    N/A       63  56  78 N4         N/A
* WISE RIVER   N/A       57  49  75 SE4        N/A
$$

MTZ009>010-012-014-046-048-049-054-230800-
EAST SLOPES AND CENTRAL MONTANA
CITY           SKY/WX    TMP DP  RH WIND       PRES   REMARKS
CUT BANK       CLEAR     61  54  78 SE5       30.20F
GREAT FALLS    PTCLDY    61  55  81 SW7       30.15F
HELENA         MOCLDY    63  55  75 NE3       30.18S
MALMSTROM AFB  PTCLDY    66  57  73 S10       30.17F
* CONRAD       PTCLDY    59  57  93 N/A        N/A
* DEARBORN     N/A       61  57  87 SW1        N/A
* EAST GLACIER N/A       53  49  86 SW1G6      N/A
* MONARCH      N/A       58  48  70 SE7        N/A
* PENDROY      N/A       60  51  72 N7         N/A
* ROGERS PASS  N/A       57  50  78 NW1        N/A
* SAINT MARY   N/A       47  46  96 SE3        N/A
* WHITE SULPH  N/A       61  53  75 NE10G17    N/A
$$

MTZ011-013-016-021-035-040-045-047-050-051-230800-
NORTH CENTRAL MONTANA
CITY           SKY/WX    TMP DP  RH WIND       PRES   REMARKS
HAVRE          CLOUDY    70  52  53 E12       30.16F
LEWISTOWN      PTCLDY    63  54  73 E5        30.27F
* FORT BENTON  MOCLDY    73  54  51 E15G23    30.14S
* CHESTER      N/A       64  54  70 NE6        N/A
* DENTON       N/A       63  57  81 SE9        N/A
* GEYSER       N/A       61  58  90 SE1G7      N/A
* JUDITH GAP   N/A       61  57  87 SW7        N/A
* LOMA         N/A       73  53  50 NE15       N/A
$$

MTZ017>020-022>027-061-062-230800-
NORTHEAST MONTANA
CITY           SKY/WX    TMP DP  RH WIND       PRES   REMARKS
GLASGOW        PTCLDY    66  55  68 E10       30.21F
GLENDIVE       PTCLDY    64  61  90 NE7       30.24F
JORDAN         PTCLDY    68  55  63 E5        30.21R
SIDNEY         MOCLDY    64  59  84 CALM      30.25R
WOLF POINT     PTCLDY    63  55  75 E7        30.22F
* BEAVER HILL  N/A       63  60  90 SE6        N/A
* CIRCLE       N/A       66  57  73 N/A        N/A
* LINDSAY DVD  N/A       62  59  90 NE8        N/A
* NAVAJO       N/A       63  59  87 NE2        N/A
$$

MTZ028>042-056>058-230800-
SOUTHCENTRAL AND SOUTHEAST MONTANA
CITY           SKY/WX    TMP DP  RH WIND       PRES   REMARKS
BAKER          PTCLDY    64  61  90 SE12      30.23F
BILLINGS       PTCLDY    64  57  78 NW7       30.23S
LIVINGSTON     PTCLDY    66  54  65 E17       30.25F
MILES CITY     CLEAR     70  61  73 SE6       30.21R
* LAUREL APT   CLEAR     63  55  75 NW5        N/A
* ROUNDUP APT  MOCLDY    66  57  73 N/A        N/A
* ALZADA       N/A       64  61  90 E6         N/A
* HYSHAM       N/A       68  59  73 W3         N/A
* LAME DEER    N/A       64  60  87 S9         N/A
* REED POINT   N/A       58  56  93 N/A        N/A
* ROSCOE HILL  N/A       60  44  56 SW7G13     N/A
$$

REGIONAL REPORTS...DAKOTAS
CITY           SKY/WX    TMP DP  RH WIND       PRES   REMARKS
WILLISTON      MOCLDY    70  63  79 E5        30.24S
DICKINSON      CLOUDY    63  59  87 SE7       30.24F
CROSBY         N/A       63  63 100 NE5       30.27S
TIOGA          PTCLDY    63  63 100 E6        30.29F
WATFORD CITY   FAIR      66  63  90 CALM      30.23S
BISMARCK       PTCLDY    66  63  90 E7        30.25F
GRAND FORKS    CLEAR     59  57  93 NW5       30.26R
FARGO          PTCLDY    61  57  87 NW3       30.26R
BUFFALO SD     CLOUDY    63  59  87 E10       30.17F
RAPID CITY     TSTM      68  64  87 N25G38    30.38R
$$

REGIONAL REPORTS...WYOMING/IDAHO/WASHINGTON
CITY           SKY/WX    TMP DP  RH WIND       PRES   REMARKS
GILLETTE       PTCLDY    64  57  78 SE8       30.33R
SHERIDAN       CLEAR     61  55  81 S8        30.29F
CODY           CLEAR     64  45  50 W3        30.29F
YELLOWSTONE LA CLEAR     46  41  83 NW3       30.47F
SALMON         PTCLDY    63  45  52 CALM      30.06F
MULLAN PASS    CLOUDY    52  46  80 N8        30.30S
SAND POINT     MOCLDY    61  55  81 N8        30.13S
SPOKANE        CLOUDY    68  55  63 SE6       30.11R
$$

REGIONAL REPORTS...ALBERTA
CITY           SKY/WX    TMP DP  RH WIND       PRES   REMARKS
CALGARY        FAIR      59  46  62 S9        30.12R
LETHBRIDGE     FAIR      59  54  84 S10       30.15F
EDMONTON       MOCLDY    63  55  75 SE12G17   30.06S
WATERTON GATE  N/A       50  46  86 SW5        N/A
CARDSTON       N/A       55  50  83 S3         N/A
MILK RIVER     N/A       55  50  83 SW2        N/A
$$

REGIONAL REPORTS...SASKATCHEWAN
CITY           SKY/WX    TMP DP  RH WIND       PRES   REMARKS
SWIFT CURRENT  CLOUDY    63  57  81 N/A       30.24F
REGINA         MOCLDY    64  52  65 SE9       30.29S
VAL MARIE      N/A       59  55  87 E8         N/A
ASSINIBOIA     N/A       61  57  87 E5         N/A
CORONACH       N/A       64  59  84 E5         N/A

$$




USA.gov is the U.S. government's official web portal to all federal, state and local government web resources and services.